Regional Weather Roundup
Issued by NWS Columbia, SC

Home | Current Version | Previous Version | Text Only | Print | Product List | Glossary On
Versions: 1 2 3 4 5 6 7 8 9 10 11 12 13 14 15 16 17 18 19 20 21 22 23 24 25 26 27 28 29 30 31 32 33 34 35 36 37 38 39 40 41 42 43 44 45 46 47 48 49
000
ASUS42 KCAE 290710
RWRCAE
REGIONAL WEATHER ROUNDUP
NATIONAL WEATHER SERVICE COLUMBIA SC
300 AM EDT FRI AUG 29 2014

NOTE: "FAIR" INDICATES FEW OR NO CLOUDS BELOW 12,000 FEET WITH NO
SIGNIFICANT WEATHER AND/OR OBSTRUCTIONS TO VISIBILITY.

NOT ALL STATIONS ARE QUALITY CONTROLLED BY THE NATIONAL
WEATHER SERVICE. USE DATA WITH CAUTION...ESPECIALLY
DEWPOINT OBSERVATIONS.

SCZ001>056-GAZ040-063>065-077-290800-
...UPSTATE SOUTH CAROLINA...

CITY           SKY/WX    TMP DP  RH WIND       PRES   REMARKS
ANDERSON       CLEAR     68  64  87 CALM      30.03F
LIBERTY        FAIR      66  32  28 MISG      30.04F
SPARTANBURG    FAIR      72  72 100 CALM      30.04S
CLEMSON        CLEAR     74  68  81 CALM      30.05F
GREENVILLE     CLEAR     74  67  78 CALM      30.06S
GREENWOOD      CLEAR     73  58  59 S8        30.05F
GREER          CLEAR     71  67  87 CALM      30.03F
ROCK HILL      CLEAR     69  64  84 SW5       30.05S
LAURENS        FAIR      72  50  46 S6        30.05F


...CENTRAL SOUTH CAROLINA...

CITY           SKY/WX    TMP DP  RH WIND       PRES   REMARKS
COLUMBIA APT   CLEAR     74  61  63 CALM      30.03F
COLUMBIA OWENS CLEAR     72  62  71 CALM      30.04F
DARLINGTON     CLEAR     70  63  78 SW5       30.04F
FLORENCE       CLEAR     71  65  81 SW3       30.03F
MCENTIRE ANGB  CLEAR     69  62  81 SW1       30.04F
ORANGEBURG     CLEAR     67  63  87 CALM      30.05S
SUMTER SHAW    CLEAR     72  66  81 S3        30.03S
NEWBERRY       FAIR      70  59  68 SW5       30.07F
AIKEN          FAIR      72  68  88 S5        30.08S
BARNWELL       FAIR      68  64  88 CALM      30.05S
MANNING        FAIR      70 N/A N/A CALM      30.04F
CAMDEN         FAIR      72  63  73 CALM      30.05S
LANCASTER      FAIR      73  63  68 CALM      30.05S
WINNSBORO      FAIR      73  61  64 S5        30.04F


...EASTERN AND COASTAL SOUTH CAROLINA...

CITY           SKY/WX    TMP DP  RH WIND       PRES   REMARKS
MYRTLE BEACH   CLEAR     75  66  73 CALM      30.05S
N MYRTLE BCH   CLEAR     74  68  81 W3        30.04S
CONWAY         FAIR      68  68 100 CALM      30.04F
MARION         FAIR      70  64  83 S3        30.04S
HARTSVILLE     FAIR      68  54  60 CALM      30.04F
FLORENCE       CLEAR     71  65  81 SW3       30.03F
DARLINGTON     CLEAR     70  63  78 SW5       30.04F
CHARLESTON APT CLEAR     73  69  87 CALM      30.04F
MOUNT PLEASANT FAIR      70  68  94 CALM      30.04S
WALTERBORO     SUNNY     68 N/A N/A CALM      30.04F
BEAUFORT       CLEAR     72  68  87 CALM      30.03F


...EASTERN GEORGIA...

CITY           SKY/WX    TMP DP  RH WIND       PRES   REMARKS
AUGUSTA BUSH F CLEAR     63  62  97 CALM      30.03F
AUGUSTA DANIEL CLEAR     73  65  75 SE5       30.05F
THOMSON        CLEAR     68  66  93 CALM      30.08S
WASHINGTON     FAIR      72  63  73 S3        30.04S
SYLVANIA       SUNNY     67  67 100 CALM      30.05S
STATESBORO     CLEAR     67  67 100 CALM      30.04S
SAVANNAH       CLEAR     72  68  87 N3        30.03F


...SOUTHERN NORTH CAROLINA...

CITY           SKY/WX    TMP DP  RH WIND       PRES   REMARKS
CHARLOTTE      PTCLDY    74  66  76 S3        30.05S
MONROE         CLEAR     72  63  73 SW3       30.04S
WADESBORO      SUNNY     70  66  85 CALM      30.03S
ROCKINGHAM     SUNNY     73  63  71 S3        30.04S
RUTHERFORDTON  CLEAR     69  68  96 CALM      30.07S
ASHEVILLE      CLEAR     66  64  93 S3        30.13S

$$



USA.gov is the U.S. government's official web portal to all federal, state and local government web resources and services.